Terminal Aerodrome Forecast
Issued by NWS

Home | Current Version | Previous Version | Text Only | Print | Product List | Glossary On
Versions: 1 2 3 4 5 6 7 8 9 10 11 12 13 14
000
FTUS45 KABQ 051100
TAFFMN
TAF
KFMN 051122Z 0512/0612 08005KT P6SM SKC
     FM051700 12005KT P6SM SKC
     FM052000 28009KT P6SM SKC
     FM060300 VRB04KT P6SM SKC=

USA.gov is the U.S. government's official web portal to all federal, state and local government web resources and services.